GFSGL_sfc_temp_021.txt.gz
Temp
41 40 39 40 40 40 38 39 39 40 39 38 38 38 38 37 37 36 38 36 36 36 35 35 35 34 34 34 34 34 33 33 34 29 33 33 32 33 33 33 33 34 35
40 39 39 39 38 37 38 38 39 38 38 38 37 37 37 37 37 36 36 36 35 34 34 33 33 32 32 32 32 31 32 32 31 29 29 29 30 31 31 30 31 33 34
38 38 38 38 37 37 38 38 37 38 38 38 37 36 36 36 36 36 38 36 35 35 34 33 33 32 30 29 30 30 30 29 29 27 27 28 29 29 29 30 30 31 32
36 36 36 36 37 38 38 38 37 37 38 37 37 37 36 36 36 35 36 36 34 35 35 34 33 31 31 29 28 28 27 26 26 25 25 25 26 28 28 27 27 30 29
35 35 35 36 36 36 36 36 36 35 36 36 36 36 36 35 35 34 35 35 34 34 33 33 33 33 33 32 29 27 25 25 24 23 23 24 25 25 25 28 26 27 28
33 33 34 34 34 34 34 34 34 33 33 34 34 34 34 35 38 38 36 34 34 33 31 31 32 29 31 33 33 31 28 23 21 22 23 22 24 26 27 26 25 24 23
31 32 32 32 32 32 32 32 32 32 33 32 33 34 34 35 38 39 37 34 33 33 32 30 29 29 29 31 33 32 32 32 29 25 22 25 25 27 27 25 25 25 25
29 30 30 29 29 30 29 30 30 31 31 32 32 33 33 34 37 39 37 34 33 32 32 30 30 28 29 29 30 29 29 29 29 28 27 27 29 29 28 27 26 24 24
27 27 27 26 27 29 28 28 29 29 29 30 32 31 31 32 37 38 37 34 31 30 31 31 30 28 30 32 28 26 26 26 32 32 31 31 31 31 30 26 21 18 17
25 25 25 24 25 23 26 27 28 28 28 29 29 30 30 30 35 36 37 34 28 29 28 29 30 29 31 33 27 26 24 24 24 26 28 30 32 29 29 27 22 16 16
23 23 22 22 22 22 24 27 26 26 27 26 26 28 28 28 30 35 37 34 28 27 26 25 28 31 32 33 29 26 25 26 25 24 24 24 23 23 23 24 24 21 17
20 19 17 17 18 19 19 22 25 24 24 24 25 25 26 27 29 32 36 38 30 25 24 25 26 31 32 33 29 27 28 26 24 22 20 19 19 19 21 22 23 24 24
14 13 13 14 15 16 16 18 21 24 22 23 23 23 23 24 25 31 33 35 31 25 26 27 29 32 33 32 31 28 27 22 19 17 17 18 20 21 21 20 21 20 20
10 11 12 11 12 13 15 17 19 23 23 22 22 22 23 22 22 25 28 32 30 29 28 27 28 31 31 29 29 29 23 20 19 18 17 18 19 17 17 18 16 17 15
8 9 9 10 9 10 13 15 17 22 25 23 23 24 22 21 22 25 25 28 27 27 25 24 25 25 24 24 25 20 19 17 16 16 15 14 15 15 15 16 15 14 12
4 5 6 7 7 8 9 11 19 23 27 31 31 29 25 28 28 27 28 30 31 29 22 21 22 23 22 21 17 15 16 15 15 14 14 13 13 13 13 14 14 11 10
1 2 3 4 4 5 7 8 8 15 23 29 31 31 31 29 29 28 29 30 32 28 21 21 21 21 18 18 16 15 13 14 14 14 13 12 12 11 10 10 10 11 10
1 1 1 2 3 4 6 7 9 10 12 18 26 28 30 31 30 29 29 30 28 26 22 21 20 18 15 15 14 14 13 12 12 12 11 11 10 9 8 8 8 7 7
0 1 1 2 3 4 6 6 7 8 11 15 20 24 26 30 31 29 29 26 26 23 20 18 17 17 16 15 14 13 11 10 10 9 8 6 5 4 4 6 7 6 6
2 3 3 3 4 4 4 4 6 8 11 15 17 19 22 24 25 23 25 25 26 21 17 17 16 15 14 12 10 9 7 6 5 4 4 4 4 4 5 4 5 6 6
2 2 3 3 3 3 4 5 7 10 12 15 16 19 24 22 23 22 23 24 17 17 14 12 11 10 9 7 6 5 4 4 3 3 2 2 2 1 3 5 5 4 4
3 3 4 5 7 7 8 8 9 12 15 15 16 17 24 23 21 19 13 12 12 12 10 8 6 5 5 5 4 3 3 2 1 2 2 1 -0 0 0 2 2 4 5
4 4 5 7 10 12 13 13 14 14 14 15 16 12 12 9 7 6 5 5 5 5 6 5 3 1 1 1 3 3 2 1 1 -0 -1 -2 -2 -1 -2 -1 1 2 4
3 4 5 6 7 8 8 9 10 10 9 7 7 6 5 4 3 2 1 1 1 2 3 2 1 -1 -2 -3 -3 -2 -1 -3 -3 -3 -4 -5 -4 -4 -3 -3 0 2 6
2 2 3 3 4 5 5 5 4 4 4 4 3 2 2 2 1 0 -0 -0 -0 -0 -2 -2 -1 -2 -3 -4 -5 -6 -6 -1 -7 -7 -8 -8 -7 -6 -5 -3 1 5 5
0 0 1 1 1 2 2 2 2 2 1 2 2 1 1 0 0 -0 -0 -1 -2 -3 -3 -3 -3 -3 -4 -4 -5 -4 -4 -1 -4 -3 -7 -7 -5 -5 -3 1 4 5 3

GFSGL_sfc_temp_024.txt.gz
Temp
45 45 45 46 46 46 46 46 46 48 48 48 48 47 46 46 47 46 46 47 45 45 45 45 44 46 45 45 46 46 45 46 43 40 45 42 40 40 38 38 38 39 41
44 44 43 44 44 44 44 45 45 44 46 45 46 45 45 45 45 44 44 45 44 43 44 43 44 42 43 43 42 41 42 43 44 35 37 37 38 39 39 37 36 36 37
42 42 42 41 41 41 42 42 43 44 43 44 42 42 42 43 43 43 43 44 44 43 43 40 41 40 39 39 39 38 39 38 41 40 34 37 36 37 34 35 35 35 36
40 40 39 39 39 39 39 39 39 40 40 41 41 41 42 42 41 41 40 42 43 42 43 41 41 39 39 37 37 37 36 35 37 36 36 33 34 34 33 32 31 33 35
38 38 38 38 39 38 37 37 37 37 37 38 38 38 38 39 39 39 39 39 40 40 40 40 39 39 39 39 37 36 34 34 33 33 33 32 31 29 29 32 31 33 34
35 35 36 36 34 34 35 34 35 35 35 35 34 35 36 37 39 40 39 37 37 38 37 38 38 37 36 39 39 39 36 32 31 32 31 30 31 31 32 31 31 29 30
33 33 32 32 30 31 33 33 34 34 35 34 33 34 34 36 39 39 39 37 36 37 37 38 36 37 35 36 38 38 37 38 38 34 31 32 31 33 33 30 29 29 30
30 30 31 30 28 29 31 30 31 34 33 34 34 34 34 35 38 39 38 37 37 38 38 37 37 35 34 35 34 33 33 34 35 34 35 34 35 34 33 32 30 30 31
30 30 30 28 26 26 25 27 29 30 31 31 32 32 32 33 36 37 37 35 35 35 36 37 37 36 35 36 33 32 31 31 35 35 35 35 35 34 33 29 25 24 23
30 30 29 27 24 22 24 24 26 27 28 31 30 32 32 31 34 36 36 35 33 34 34 34 34 35 36 35 33 31 28 29 29 29 30 32 33 32 32 30 28 23 23
29 28 26 25 22 22 22 23 22 23 25 26 28 30 31 32 32 34 35 34 34 33 33 32 33 35 36 35 36 31 31 31 29 27 28 28 28 29 29 29 29 26 22
26 24 22 21 20 20 18 18 19 20 21 22 25 28 31 32 32 32 34 35 35 33 33 32 32 33 35 34 35 32 34 31 28 27 26 25 24 23 25 26 27 27 27
19 17 17 17 17 17 15 16 17 18 19 21 24 27 29 31 32 32 33 34 33 33 34 32 33 32 34 33 33 32 30 27 26 24 24 24 25 24 24 24 25 25 25
13 13 14 13 13 14 15 16 15 16 17 20 22 25 27 29 30 30 29 29 30 31 34 30 29 29 30 30 29 31 28 26 26 24 24 24 23 21 20 21 19 18 17
8 9 9 10 9 10 12 13 14 16 17 16 19 21 23 24 28 31 28 26 27 29 29 27 26 26 26 27 27 26 26 24 23 24 21 19 18 18 18 19 18 17 14
3 5 6 6 6 7 7 8 14 16 18 21 23 23 24 28 31 31 32 30 31 30 26 24 24 24 25 26 27 24 23 22 23 21 19 18 16 16 16 16 17 15 14
2 3 4 4 5 4 5 5 4 10 15 18 21 23 25 27 30 32 31 32 31 30 25 24 24 24 25 26 27 22 21 21 20 19 17 17 16 16 15 15 15 14 13
3 3 3 3 4 4 4 4 5 5 5 8 16 18 22 26 29 31 32 31 27 28 27 24 23 24 25 25 21 19 19 17 17 16 15 15 14 14 13 13 13 12 12
3 4 4 4 4 4 4 4 5 5 5 7 10 14 18 24 27 29 30 28 26 26 27 24 24 24 22 21 20 18 17 16 16 15 14 13 13 13 12 12 12 11 11
5 5 5 5 5 5 5 5 5 6 6 7 9 12 16 22 21 23 28 28 27 27 25 24 22 20 20 19 18 16 15 13 13 12 11 11 10 11 10 10 11 11 10
5 6 6 6 6 6 6 6 6 6 7 8 11 15 22 21 21 23 26 27 26 25 21 19 18 18 17 16 14 13 12 11 10 9 9 9 8 8 11 11 11 9 9
6 6 6 6 7 8 9 11 11 10 9 10 13 19 22 21 22 23 19 18 19 19 18 17 15 14 13 12 12 11 9 8 8 8 8 7 7 8 8 9 8 9 9
5 5 6 7 8 9 11 12 12 14 14 15 14 14 14 13 12 12 11 12 12 12 12 12 10 9 10 11 11 11 9 8 8 8 7 6 6 6 7 8 7 6 7
4 4 5 5 6 7 7 7 8 8 8 7 7 6 6 6 5 5 6 7 7 8 9 8 8 7 6 7 8 9 8 7 7 7 7 6 5 5 6 5 6 6 7
2 2 3 3 3 3 4 5 5 6 5 5 5 4 4 4 3 3 4 5 5 5 5 6 6 5 4 3 3 3 5 4 3 3 2 4 4 3 3 3 5 6 6
1 1 1 2 2 2 2 2 2 3 3 3 3 3 3 3 3 3 3 3 3 3 3 3 3 2 2 2 1 0 2 3 -1 -0 0 1 1 2 2 2 3 4 7

GFSGL_sfc_temp_030.txt.gz
Temp
39 39 38 38 38 38 38 38 37 36 37 37 37 36 37 36 37 36 36 36 36 36 36 35 38 38 42 38 37 37 37 35 34 31 33 34 36 37 36 34 36 34 36
40 39 38 38 36 35 35 35 34 35 35 35 35 35 35 36 35 35 35 36 35 35 35 35 37 40 38 36 38 40 42 37 34 29 30 30 32 37 35 33 34 35 33
37 36 36 34 33 33 33 33 33 33 32 33 33 33 34 33 34 35 34 35 35 35 36 35 38 35 38 39 37 39 40 39 38 28 28 29 29 34 30 31 31 29 33
36 35 33 32 33 33 32 31 31 31 30 30 31 31 32 33 33 34 35 35 35 36 36 37 38 37 38 38 38 38 38 36 40 32 26 29 29 32 33 30 28 31 31
33 31 31 31 31 30 29 29 29 29 30 30 30 31 31 32 33 32 33 33 32 34 35 36 37 37 39 40 39 38 37 37 37 38 33 26 29 29 30 31 30 31 30
29 29 30 30 30 29 28 27 28 28 28 28 29 29 30 32 37 39 38 33 33 32 32 34 36 36 36 40 42 43 41 37 37 37 37 33 32 33 33 30 31 28 24
30 29 30 29 28 29 30 28 28 26 26 27 28 28 29 30 36 37 38 34 32 33 33 33 33 35 35 36 39 41 43 43 44 40 37 38 35 34 33 31 31 32 32
27 26 26 27 27 29 29 29 28 27 26 26 26 26 26 29 34 35 36 34 32 32 32 32 32 33 34 33 33 32 35 38 40 41 40 41 41 37 36 35 33 34 27
27 27 26 25 24 26 25 26 27 26 25 24 24 23 23 24 30 32 33 31 31 31 33 33 33 33 35 38 33 30 30 31 39 42 43 44 44 42 38 35 30 27 19
25 25 24 23 21 21 22 22 24 23 23 24 22 22 22 21 27 29 30 28 27 29 31 32 33 32 36 38 35 32 29 31 31 32 36 39 41 39 39 37 33 29 31
20 19 18 17 15 15 15 16 17 17 18 17 17 18 18 19 20 26 28 26 26 27 28 30 32 36 37 37 38 34 32 34 33 31 30 31 34 33 34 36 37 35 31
15 13 10 9 9 10 8 9 10 10 10 11 12 13 16 18 21 24 27 28 30 27 27 30 31 36 37 37 37 38 37 36 31 29 29 29 30 31 33 34 34 35 35
7 5 5 5 6 6 5 5 5 6 6 6 8 8 10 15 16 21 23 26 28 27 30 33 35 35 36 36 38 38 35 33 30 28 28 28 30 31 32 29 29 28 26
3 3 4 4 3 4 6 6 4 4 4 4 4 5 6 9 11 14 16 17 20 22 28 31 32 33 34 33 32 34 34 32 30 29 28 29 28 27 26 26 24 24 22
3 3 3 3 3 3 5 5 5 7 8 6 7 8 8 8 11 17 17 15 15 19 22 24 25 25 24 27 30 30 31 31 29 29 27 26 25 25 25 25 23 22 20
1 3 3 3 2 3 3 4 11 14 15 17 18 16 14 18 20 21 21 22 22 23 19 18 20 22 22 25 27 27 27 29 29 29 26 26 25 23 21 21 21 20 18
1 2 2 2 2 1 2 2 1 7 14 15 16 17 18 18 19 19 20 21 22 22 17 18 19 22 23 25 26 25 25 27 29 27 26 25 22 21 19 18 18 18 17
3 2 1 1 1 2 2 3 4 3 3 5 12 14 17 18 19 20 21 20 15 17 16 17 18 21 24 24 24 25 26 26 26 26 24 21 21 19 18 18 17 17 16
2 2 2 2 3 3 4 5 5 5 5 6 7 12 14 17 18 20 21 15 14 13 15 17 20 23 25 24 25 26 27 23 23 22 21 20 20 19 18 17 17 17 16
1 3 4 3 3 3 4 4 5 6 6 8 9 9 12 10 9 10 13 13 15 16 17 19 23 25 25 24 25 25 23 22 21 20 19 19 18 18 16 16 15 14 14
2 1 1 2 1 3 4 4 5 6 6 6 7 9 16 9 7 9 10 12 12 15 19 20 24 24 23 21 23 22 20 20 19 18 18 17 17 15 16 15 14 14 13
-1 -1 -0 -1 1 2 2 4 4 4 4 4 4 6 12 6 6 6 7 8 9 10 13 18 17 17 16 17 19 18 17 16 15 16 15 15 15 14 14 13 12 12 12
-2 -2 -2 -1 -0 1 1 2 3 3 3 3 3 3 3 3 3 3 4 6 7 8 9 11 11 12 14 15 16 16 14 13 14 14 13 13 13 12 12 11 11 10 10
-4 -3 -3 -2 -2 -1 -1 0 2 2 2 3 3 3 3 3 3 3 3 4 5 5 6 7 7 8 10 11 12 12 12 13 13 13 13 12 11 11 11 10 10 9 9
-8 -6 -5 -4 -3 -3 -2 -2 -0 0 2 2 2 3 3 3 3 3 3 3 3 3 3 3 4 5 5 7 8 10 13 12 12 12 12 11 10 10 9 9 9 9 9
-9 -9 -10 -6 -5 -3 -3 -3 -3 -2 -1 -0 1 1 1 1 2 2 3 3 3 3 3 3 3 4 6 6 7 9 10 10 9 9 9 9 7 7 7 7 7 6 6

GFSGL_sfc_temp_033.txt.gz
Temp
36 36 37 36 36 36 35 35 34 34 34 34 35 35 34 34 34 34 34 34 33 34 34 33 35 37 40 40 34 39 40 35 41 45 33 32 35 37 37 38 36 37 39
38 36 36 36 35 35 34 34 34 34 34 33 34 32 32 32 33 32 32 32 32 32 33 33 35 38 34 38 39 37 39 39 40 41 30 29 31 36 37 34 35 37 35
36 35 35 34 34 32 34 33 33 33 33 33 32 32 32 32 31 31 31 31 31 31 32 33 34 33 34 36 35 36 38 40 38 39 40 28 31 32 29 32 32 33 34
35 33 31 30 32 31 32 31 31 31 31 31 31 32 32 32 32 32 32 30 30 31 32 33 34 35 36 36 35 36 36 37 35 36 39 27 28 29 33 31 28 30 31
32 31 30 30 30 30 29 29 29 29 29 30 30 29 30 30 32 31 31 31 31 31 31 32 33 34 37 38 37 36 35 35 36 34 36 27 27 27 30 32 31 31 30
29 29 30 30 31 31 31 31 31 30 29 28 28 28 28 30 34 36 35 32 32 32 31 32 32 32 33 37 39 41 40 35 33 35 36 36 35 35 33 33 32 28 25
29 29 29 29 28 28 29 29 29 28 30 29 28 28 27 28 32 33 34 32 31 31 31 32 32 33 32 33 36 39 40 41 42 38 35 37 37 37 33 32 32 33 35
24 23 24 25 23 25 25 25 25 26 25 26 26 27 26 27 31 31 31 29 28 29 30 31 31 32 32 32 31 31 33 34 36 36 39 40 41 39 36 36 34 34 32
24 23 21 19 18 19 17 18 19 19 19 20 22 22 22 23 28 29 28 25 24 25 27 28 30 31 34 36 32 30 30 33 37 38 39 41 43 44 39 35 31 29 28
21 20 19 17 12 12 12 11 13 13 14 16 16 17 17 17 22 24 25 22 19 21 23 25 29 29 33 35 32 31 29 31 33 33 33 36 37 36 40 37 34 30 31
16 15 14 12 9 8 8 9 8 8 9 8 9 11 12 13 15 20 22 20 19 18 19 22 26 30 33 35 36 32 31 34 34 34 32 32 33 33 34 36 37 36 33
12 10 7 6 6 7 4 5 5 4 4 4 4 6 10 12 15 17 20 21 22 17 17 20 23 28 31 33 34 36 38 37 34 33 31 30 30 31 32 33 34 37 38
1 1 2 4 5 5 2 3 3 4 3 3 4 4 6 10 11 16 18 19 20 17 18 20 24 25 25 28 32 36 34 33 32 32 30 30 31 32 34 32 32 32 33
-5 1 3 3 3 3 5 5 3 2 2 3 3 3 5 8 9 11 11 11 15 16 18 17 19 22 24 24 27 30 32 31 32 32 32 30 32 30 30 29 28 26 25
1 3 3 3 2 3 4 3 4 6 7 6 8 10 9 10 12 18 19 17 17 18 16 14 14 17 17 18 24 25 26 28 29 31 31 29 28 27 27 27 27 24 24
-0 2 2 3 3 3 2 2 10 13 15 17 18 17 15 19 21 21 22 23 23 23 17 15 14 15 16 17 19 22 24 26 28 30 30 30 27 25 26 25 26 23 23
-2 1 2 3 2 1 1 1 -0 6 13 15 17 18 19 19 21 22 23 23 24 23 15 14 13 14 16 18 19 21 23 25 27 29 29 28 26 26 25 24 23 22 22
-2 1 1 2 1 1 1 2 2 2 2 4 12 15 18 19 20 22 23 23 16 17 15 13 12 14 15 17 20 21 23 25 24 27 27 27 26 25 23 22 21 21 21
-1 0 0 1 2 2 2 2 2 3 3 4 6 10 11 15 17 18 18 12 11 11 13 14 14 13 15 17 19 21 23 23 25 26 27 26 24 23 22 22 21 21 20
-2 0 1 -1 -0 -0 0 1 2 2 2 3 3 4 5 9 3 4 6 7 7 9 9 8 14 16 16 18 20 22 24 24 24 25 24 22 23 22 21 20 19 18 18
-2 -3 -2 -2 -3 -2 -1 -1 0 1 1 1 2 4 14 5 2 2 3 4 5 6 7 9 16 17 19 22 22 24 24 22 22 22 21 20 20 19 20 19 18 18 17
-11 -8 -5 -5 -3 -3 -3 -1 0 0 1 1 2 4 11 3 2 2 3 3 4 5 7 8 11 12 14 16 19 20 20 19 19 19 18 18 18 17 17 16 16 15 14
-10 -9 -7 -5 -4 -4 -4 -4 -2 -0 0 1 2 2 3 2 2 2 2 3 3 4 5 6 6 8 11 12 14 14 14 14 15 17 16 15 15 15 14 14 13 13 13
-14 -13 -11 -9 -8 -6 -6 -5 -4 -2 -2 -1 -0 0 1 2 2 2 3 3 4 4 4 4 5 5 6 9 11 12 13 13 14 15 15 14 13 13 13 12 12 12 11
-17 -17 -16 -14 -14 -10 -8 -7 -5 -5 -4 -2 -2 -2 -1 1 1 1 2 3 3 3 4 4 4 7 7 8 8 10 12 12 13 13 13 13 12 11 11 10 10 10 10
-14 -16 -17 -16 -15 -14 -14 -10 -9 -7 -7 -5 -4 -4 -3 -2 -1 0 1 2 2 3 3 3 4 4 6 10 11 12 12 13 11 11 11 11 10 9 9 9 9 8 8